This is the latest recevied weather packets stored in our database for station/object KD4IZ-13. If no packets are shown the sender has not sent any weather packets the latest 10 day(s).
| Time | Temp. | Humidity | Pressure | Rain* | Wind** | Luminosity | Snow |
|---|---|---|---|---|---|---|---|
| 1778007390 | 26.67° C | 42% | 1011.5 hPa | 0 mm | - | 643 W/m² | - |
| 1778007086 | 26.11° C | 41% | 1011.5 hPa | 0 mm | - | 672 W/m² | - |
| 1778006783 | 26.67° C | 43% | 1011.6 hPa | 0 mm | - | 687 W/m² | - |
| 1778006480 | 26.67° C | 41% | 1011.5 hPa | 0 mm | - | 628 W/m² | - |
| 1778006177 | 26.67° C | 41% | 1011.7 hPa | 0 mm | - | 649 W/m² | - |
| 1778005875 | 26.67° C | 40% | 1011.6 hPa | 0 mm | - | 679 W/m² | - |
| 1778005570 | 26.67° C | 40% | 1012 hPa | 0 mm | - | 667 W/m² | - |
| 1778005268 | 26.11° C | 40% | 1011.6 hPa | 0 mm | - | 667 W/m² | - |
| 1778004964 | 26.11° C | 41% | 1011.8 hPa | 0 mm | - | 692 W/m² | - |
| 1778004662 | 26.67° C | 40% | 1012 hPa | 0 mm | - | 706 W/m² | - |
| 1778004356 | 26.11° C | 42% | 1011.9 hPa | 0 mm | - | 699 W/m² | - |
| 1778004055 | 26.11° C | 43% | 1011.9 hPa | 0 mm | - | 698 W/m² | - |
| 1778003750 | 26.11° C | 41% | 1012.1 hPa | 0 mm | - | 686 W/m² | - |
| 1778003447 | 26.11° C | 43% | 1012.2 hPa | 0 mm | - | 678 W/m² | - |
| 1778003144 | 26.11° C | 42% | 1012 hPa | 0 mm | - | 689 W/m² | - |
| 1778002840 | 25.56° C | 44% | 1012.3 hPa | 0 mm | - | 701 W/m² | - |
| 1778002537 | 26.11° C | 45% | 1012.2 hPa | 0 mm | - | 694 W/m² | - |
| 1778002234 | 26.11° C | 45% | 1012.3 hPa | 0 mm | - | 704 W/m² | - |
| 1778001932 | 26.11° C | 45% | 1012.2 hPa | 0 mm | - | 693 W/m² | - |
| 1778001628 | 26.11° C | 46% | 1012.1 hPa | 0 mm | - | 709 W/m² | - |
| 1778001323 | 25.56° C | 47% | 1012.4 hPa | 0 mm | - | 702 W/m² | - |
| 1778001020 | 25.56° C | 45% | 1012.4 hPa | 0 mm | - | 710 W/m² | - |
| 1778000717 | 25.56° C | 49% | 1012.5 hPa | 0 mm | - | 701 W/m² | - |
| 1778000413 | 25.56° C | 48% | 1012.6 hPa | 0 mm | - | 705 W/m² | - |
| 1778000108 | 25.56° C | 51% | 1012.7 hPa | 0 mm | - | 711 W/m² | - |
* Rain latest hour (hover to see other rain measurements)
** Current wind speed in m/s (hover to see current wind gust speed)